Regional Weather Roundup
Issued by NWS

Home | Current Version | Previous Version | Graphics & Text | Print | Product List | Glossary On
Versions: 1 2 3 4 5 6 7 8 9 10 11 12 13 14 15 16 17 18 19 20 21 22 23 24 25 26 27 28
000
ASUS45 KSLC 302010
RWRUT

UTAH REGIONAL WEATHER ROUNDUP
NATIONAL WEATHER SERVICE SALT LAKE CITY UT
200 PM MDT SAT APR 30 2016

UTZ001>011-023>025-302100-

NORTHERN UTAH

CITY           SKY/WX    TMP DP  RH WIND       PRES   REMARKS
BRIGHAM CITY   PTSUNNY   57  26  30 CALM      29.97F
HILL AFB       PTSUNNY   57  31  36 E7G16     29.95F
LOGAN          PTSUNNY   57  31  37 E5        29.98F
OGDEN          PTSUNNY   59  30  33 NE17G24   29.95S
PROVO AIRPORT  PTSUNNY   57  32  38 W10       29.91F
SALT LAKE CITY PTSUNNY   59  31  34 N18       29.91F
VERNAL         CLOUDY    48  29  47 N21       29.98S
WENDOVER       MOSUNNY   54  39  58 N22G30    29.99R
HEBER CITY     CLOUDY    50  28  43 E6        29.92S

$$

UTZ012>022-026-027-302100-

SOUTHERN/CENTRAL UTAH

CITY           SKY/WX    TMP DP  RH WIND       PRES   REMARKS
BLANDING       CLOUDY    46  36  67 NW8       29.95S
BRYCE CANYON   LGT RAIN  39  36  89 SE8       29.92S WCI  33
CEDAR CITY     PTSUNNY   47  41  80 S6        29.84F
DELTA          PTSUNNY   55  36  47 NW13G23   29.89F
HANKSVILLE     PTSUNNY   55  32  41 NE8       29.89F
MILFORD        MOSUNNY   56  37  49 N18G28    29.85F
MOAB/CYNLANDS  PTSUNNY   61  32  33 NE16      29.85F
PRICE          PTSUNNY   54  29  38 NE16G25   29.92S
ST GEORGE      CLOUDY    63  45  51 NE15G22   29.81F
KANAB          CLOUDY    46  43  87 E13G18    29.92

$$

REGIONAL REPORTS     COLORADO/ARIZONA

CITY           SKY/WX    TMP DP  RH WIND       PRES   REMARKS
CRAIG, CO      CLOUDY    44  30  57 E5        29.95R
GRAND JUNCTION CLOUDY    52  31  44 N6        29.89S
RIFLE          CLOUDY    50  31  48 S5        29.90S
MONTROSE       CLOUDY    52  29  41 NW12G20   29.88F
CORTEZ         CLOUDY    53  31  42 W8        29.85S
PAGE, AZ       CLOUDY    53  44  71 NW12      29.86S
GRAND CANYON   CLOUDY    46  39  76 E3        29.86F
KINGMAN        LGT RAIN  48  43  82 SE12      29.82R
FLAGSTAFF      CLOUDY    49  32  52 SW20G26   29.84F

$$

REGIONAL REPORTS    NEVADA/IDAHO/WYOMING

CITY           SKY/WX    TMP DP  RH WIND       PRES   REMARKS
LAS VEGAS, NV  PTSUNNY   58  57  97 VRB5      29.74F
ELY            PTSUNNY   47  38  71 N22G30    29.96S
ELKO           CLOUDY    54  36  50 NE13      30.01F
POCATELLO, ID  PTSUNNY   54  38  54 N7        30.03F
BURLEY         CLOUDY    52  39  61 VRB6      30.04F
EVANSTON, WY   CLOUDY    44  27  51 E17G24    30.02S
ROCK SPRINGS   FLURRIES  39  32  76 NE23G29   30.05R WCI  28
KEMMERER         N/A     43  30  61 E13G20    30.04S

$$




USA.gov is the U.S. government's official web portal to all federal, state and local government web resources and services.